STARLINK-32915, 63152

Orbit data source: Space-Track

STARLINK-32915, 63152 is a payload satellite owned by SpaceX/Seattle (US) in LEO that was launched on Mon, 03 Mar 2025 UTC via an FALCON 9 launch vehicle from the Air Force Eastern Test Range (AFETR). Payload-class satellites include a variety of spacecraft equipped with specific instruments for various scientific and technological missions. These include communications satellites like Starlink; space stations such as the ISS; scientific satellites like the Hubble; Earth observation satellites from companies like Planet Labs, Umbra, and HawkEye 360; GPS; miniature CubeSats for education and research; and military/defense satellites.

Loading next visibility...
Identifier
63152, 2025-043W
Orbit
LEO
Country
Flag of USUS
Related business
Manufacturer
SpaceX/Seattle
Mission
Operational Commercial Communications
Bus & Motor
STARLINK V2M, Unknown motor
Mass
730 kg wet, ~700 kg dry
Launch date (UTC)
2025-03-03 (6 months ago)
Launch vehicle
FALCON 9
Launch site
Air Force Eastern Test Range (AFETR)
Object type
Payload
Rocket body
Debris
Shape & HBR
Box + 2 Pan, 14.5 m
Radar Cross Section
33.884 m², Large (>1 m²)

Expand to show TLE details & history
Last TLE update: 1 day ago

TLE from 1 day ago
0 STARLINK-32915
1 63152U 25043W   25258.78506789  .00013439  00000-0  49752-3 0  9993
2 63152  43.0002 290.8207 0002178 284.9658  75.0953 15.27543853 30539
Epoch: 2025-09-15T18:50Z
TLE epoch observation values (Epoch: 2025-09-15T18:50:29.865Z)
Latitude
0.00001°
Longitude
13.21153°
Altitude
482.549 km
Speed
7.626 km/s
True Right ascension
19h 23m 16s
True Declination
0° 00' 00"
Sunlit
Object was in full shadow at epoch
Visualization orbit readout
Latitude
Unknown
Longitude
Unknown
Altitude
Unknown
Speed
Unknown
Apparent Right ascension
Unknown
Apparent Declination
Unknown
Sunlit
N/A
Visualization observer readout
Local Sidereal Time
12:11:02
Azimuth
Unknown
Elevation
Unknown
Doppler factor
Unknown
Orbital elements
Apogee altitude
486.597 km
Perigee altitude
483.608 km
Semi-major axis
6,863.239 km
Eccentricity
0.00022
Inclination
43.0002°
RAAN
290.8207°
Arg. of periapsis
284.9658°
True anomaly
75.11942°
Mean anomaly
75.0953°
Eccentric anomaly
75.10736°
Mean motion
3.81724 °/min
Orbital period
94.31 mins
BSTAR
0.00049752
Loading maneuver chart data...
Computing Atmospheric mass density...
Loading historical data...
Loading historical data...
Loading historical data...
Loading historical data...
Loading historical data...
Loading historical data...
Loading historical data...

Documentation

Showing up to 5 results
|